TimeHST,TemperatureF,Dew PointF,Humidity,Sea Level PressureIn,VisibilityMPH,Wind Direction,Wind SpeedMPH,Gust SpeedMPH,PrecipitationIn,Events,Conditions,WindDirDegrees,DateUTC
12:53 AM,70.0,66.9,90,30.16,10.0,Calm,Calm,-,0.01,,Clear,0,2014-03-26 10:53:00
1:53 AM,71.1,68.0,90,30.14,10.0,NNE,4.6,-,N/A,,Scattered Clouds,30,2014-03-26 11:53:00
2:53 AM,69.1,66.9,93,30.12,10.0,Calm,Calm,-,N/A,,Partly Cloudy,0,2014-03-26 12:53:00
3:53 AM,68.0,66.9,96,30.12,10.0,Calm,Calm,-,N/A,,Mostly Cloudy,0,2014-03-26 13:53:00
4:53 AM,70.0,68.0,93,30.12,10.0,ENE,3.5,-,N/A,,Mostly Cloudy,70,2014-03-26 14:53:00
5:53 AM,69.1,66.9,93,30.12,10.0,Variable,3.5,-,0.00,,Clear,0,2014-03-26 15:53:00
6:53 AM,69.1,66.0,90,30.14,10.0,ENE,3.5,-,N/A,,Scattered Clouds,60,2014-03-26 16:53:00
7:53 AM,73.0,68.0,84,30.16,10.0,Variable,4.6,-,N/A,,Partly Cloudy,0,2014-03-26 17:53:00
8:53 AM,77.0,69.1,76,30.17,10.0,East,4.6,-,N/A,,Clear,80,2014-03-26 18:53:00
9:38 AM,78.8,69.8,74,30.15,10.0,Variable,4.6,-,N/A,,Mostly Cloudy,0,2014-03-26 19:38:00
9:53 AM,79.0,69.1,72,30.17,10.0,SSE,3.5,-,N/A,,Scattered Clouds,160,2014-03-26 19:53:00
10:04 AM,80.6,69.8,70,30.15,10.0,SE,8.1,-,N/A,,Mostly Cloudy,140,2014-03-26 20:04:00
10:26 AM,80.6,69.8,70,30.15,10.0,SE,9.2,-,N/A,,Scattered Clouds,140,2014-03-26 20:26:00
10:53 AM,80.1,70.0,71,30.17,10.0,SE,8.1,-,N/A,,Clear,130,2014-03-26 20:53:00
11:53 AM,80.1,70.0,71,30.14,10.0,SE,9.2,-,N/A,,Clear,130,2014-03-26 21:53:00
12:53 PM,82.0,69.1,65,30.12,10.0,SE,11.5,-,N/A,,Clear,140,2014-03-26 22:53:00
1:53 PM,81.0,69.1,67,30.09,10.0,SE,9.2,-,N/A,,Clear,130,2014-03-26 23:53:00
2:53 PM,81.0,69.1,67,30.08,10.0,SE,9.2,-,N/A,,Clear,130,2014-03-27 00:53:00
3:53 PM,81.0,70.0,69,30.08,10.0,SE,8.1,-,N/A,,Partly Cloudy,130,2014-03-27 01:53:00
4:53 PM,80.1,70.0,71,30.08,10.0,ESE,8.1,-,N/A,,Mostly Cloudy,120,2014-03-27 02:53:00
5:53 PM,78.1,70.0,76,30.08,10.0,Variable,5.8,-,N/A,,Partly Cloudy,0,2014-03-27 03:53:00
6:45 PM,78.8,68.0,69,30.07,10.0,Variable,3.5,-,N/A,,Overcast,0,2014-03-27 04:45:00
6:53 PM,78.1,68.0,71,30.10,10.0,Variable,3.5,-,N/A,,Overcast,0,2014-03-27 04:53:00
7:26 PM,77.0,68.0,74,30.09,10.0,ENE,3.5,-,N/A,,Overcast,60,2014-03-27 05:26:00
7:53 PM,75.9,66.9,74,30.11,10.0,Calm,Calm,-,N/A,,Mostly Cloudy,0,2014-03-27 05:53:00
8:53 PM,75.0,66.9,76,30.13,10.0,Calm,Calm,-,N/A,,Overcast,0,2014-03-27 06:53:00
9:53 PM,75.0,66.9,76,30.15,10.0,ENE,3.5,-,N/A,,Overcast,60,2014-03-27 07:53:00
10:53 PM,72.0,66.0,81,30.15,10.0,Calm,Calm,-,N/A,,Clear,0,2014-03-27 08:53:00
11:53 PM,71.1,66.0,84,30.15,10.0,Calm,Calm,-,N/A,,Partly Cloudy,0,2014-03-27 09:53:00